• In Germany
  • List of Countries
  • For 7 days
  • Water Temperature
  • Satellite Maps
  • Weather Map
  • Weather Widgets
  • user-avatar
    Login

    Hourly Weather Shaki

    Today, 25 April, Tuesday

    Time Temperature Precipitation Wind Pressure Humidity
    00:00 +9°C° 0 mm 2 mps 737 mmHg 61%
    01:00 +9°C° 0 mm 2 mps 737 mmHg 62%
    02:00 +8°C° 0 mm 2 mps 737 mmHg 63%
    03:00 +9°C° 0 mm 1 mps 737 mmHg 57%
    04:00 +9°C° 0 mm 1 mps 737 mmHg 56%
    05:00 +10°C° 0 mm 1 mps 738 mmHg 54%
    06:00 +9°C° 0 mm 2 mps 738 mmHg 53%
    07:00 +12°C° 0 mm 2 mps 739 mmHg 47%
    08:00 +13°C° 0 mm 3 mps 739 mmHg 40%
    09:00 +15°C° 0 mm 4 mps 739 mmHg 34%
    10:00 +17°C° 0 mm 4 mps 739 mmHg 32%
    11:00 +17°C° 0 mm 4 mps 740 mmHg 30%
    12:00 +18°C° 0 mm 3 mps 740 mmHg 29%
    13:00 +18°C° 0 mm 4 mps 740 mmHg 29%
    14:00 +18°C° 0 mm 4 mps 740 mmHg 30%
    15:00 +18°C° 0 mm 4 mps 740 mmHg 30%
    16:00 +17°C° 0 mm 3 mps 741 mmHg 33%
    17:00 +16°C° 0 mm 3 mps 741 mmHg 36%
    18:00 +15°C° 0 mm 2 mps 742 mmHg 39%
    19:00 +13°C° 0 mm 2 mps 743 mmHg 42%
    20:00 +10°C° 0 mm 2 mps 743 mmHg 46%
    21:00 +9°C° 0 mm 2 mps 744 mmHg 50%
    22:00 +8°C° 0 mm 2 mps 744 mmHg 54%
    23:00 +8°C° 0 mm 2 mps 745 mmHg 58%

    Tomorrow, 26 April, Wednesday

    Time Temperature Precipitation Wind Pressure Humidity
    00:00 +7°C° 0 mm 2 mps 745 mmHg 62%
    01:00 +7°C° 0 mm 2 mps 745 mmHg 66%
    02:00 +6°C° 0 mm 2 mps 745 mmHg 70%
    03:00 +6°C° 0 mm 2 mps 745 mmHg 74%
    04:00 +6°C° 0 mm 2 mps 746 mmHg 73%
    05:00 +7°C° 0 mm 2 mps 746 mmHg 71%
    06:00 +9°C° 0 mm 1 mps 746 mmHg 70%
    07:00 +9°C° 0 mm 2 mps 747 mmHg 64%
    08:00 +10°C° 0 mm 3 mps 747 mmHg 59%
    09:00 +12°C° 0 mm 3 mps 747 mmHg 53%
    10:00 +13°C° 0 mm 4 mps 747 mmHg 50%
    11:00 +14°C° 0 mm 4 mps 746 mmHg 47%
    12:00 +15°C° 0 mm 4 mps 746 mmHg 44%
    13:00 +15°C° 0 mm 4 mps 746 mmHg 43%
    14:00 +17°C° 0 mm 4 mps 745 mmHg 42%
    15:00 +17°C° 0 mm 4 mps 745 mmHg 41%
    16:00 +15°C° 0 mm 4 mps 745 mmHg 45%
    17:00 +14°C° 0 mm 3 mps 746 mmHg 49%
    18:00 +13°C° 0 mm 3 mps 746 mmHg 53%
    19:00 +11°C° 0 mm 3 mps 746 mmHg 58%
    20:00 +10°C° 0 mm 3 mps 746 mmHg 64%
    21:00 +8°C° 0 mm 2 mps 746 mmHg 70%
    22:00 +7°C° 0 mm 2 mps 746 mmHg 72%
    23:00 +6°C° 0 mm 2 mps 746 mmHg 74%

    Day after tomorrow, 27 April, Thursday

    Time Temperature Precipitation Wind Pressure Humidity
    00:00 +6°C° 0 mm 2 mps 746 mmHg 75%
    01:00 +5°C° 0 mm 2 mps 746 mmHg 76%
    02:00 +6°C° 0 mm 1 mps 746 mmHg 76%
    03:00 +6°C° 0 mm 1 mps 745 mmHg 77%
    04:00 +7°C° 0 mm 1 mps 746 mmHg 73%
    05:00 +8°C° 0 mm 1 mps 746 mmHg 70%
    06:00 +9°C° 0 mm 1 mps 746 mmHg 66%
    07:00 +11°C° 0 mm 1 mps 746 mmHg 55%
    08:00 +13°C° 0 mm 2 mps 745 mmHg 45%
    09:00 +15°C° 0 mm 2 mps 745 mmHg 34%
    10:00 +16°C° 0 mm 3 mps 745 mmHg 33%
    11:00 +17°C° 0 mm 3 mps 744 mmHg 32%
    12:00 +19°C° 0 mm 4 mps 744 mmHg 30%
    13:00 +19°C° 0 mm 4 mps 744 mmHg 31%
    14:00 +19°C° 0 mm 4 mps 743 mmHg 32%
    15:00 +19°C° 0 mm 4 mps 743 mmHg 34%
    16:00 +18°C° 0 mm 4 mps 743 mmHg 38%
    17:00 +17°C° 0 mm 3 mps 743 mmHg 43%
    18:00 +16°C° 0 mm 3 mps 743 mmHg 48%
    19:00 +13°C° 0 mm 3 mps 744 mmHg 52%
    20:00 +11°C° 0 mm 3 mps 744 mmHg 55%
    21:00 +10°C° 0 mm 3 mps 744 mmHg 58%
    22:00 +9°C° 0 mm 2 mps 744 mmHg 57%
    23:00 +9°C° 0 mm 2 mps 744 mmHg 56%

    28 April, Friday

    Time Temperature Precipitation Wind Pressure Humidity
    00:00 +9°C° 0 mm 2 mps 744 mmHg 55%
    01:00 +9°C° 0 mm 2 mps 744 mmHg 56%
    02:00 +9°C° 0 mm 2 mps 743 mmHg 56%
    03:00 +10°C° 0 mm 1 mps 743 mmHg 56%
    04:00 +11°C° 0 mm 1 mps 743 mmHg 57%
    05:00 +11°C° 0 mm 1 mps 743 mmHg 57%
    06:00 +12°C° 0 mm 1 mps 743 mmHg 58%
    07:00 +13°C° 0 mm 1 mps 743 mmHg 53%
    08:00 +15°C° 0 mm 1 mps 742 mmHg 48%
    09:00 +16°C° 0 mm 2 mps 742 mmHg 43%
    10:00 +18°C° 0 mm 2 mps 742 mmHg 41%
    11:00 +19°C° 0 mm 2 mps 741 mmHg 39%
    12:00 +20°C° 0 mm 2 mps 740 mmHg 37%
    13:00 +21°C° 0 mm 2 mps 740 mmHg 37%
    14:00 +21°C° 0 mm 2 mps 740 mmHg 37%
    15:00 +22°C° 0 mm 3 mps 739 mmHg 36%
    16:00 +20°C° 0 mm 2 mps 739 mmHg 42%
    17:00 +19°C° 0 mm 2 mps 739 mmHg 48%
    18:00 +18°C° 0 mm 2 mps 739 mmHg 54%
    19:00 +16°C° 0 mm 2 mps 740 mmHg 55%
    20:00 +15°C° 0 mm 2 mps 740 mmHg 57%
    21:00 +13°C° 0 mm 2 mps 740 mmHg 58%
    22:00 +13°C° 0 mm 2 mps 740 mmHg 59%
    23:00 +12°C° 0 mm 2 mps 739 mmHg 60%

    29 April, Saturday

    Time Temperature Precipitation Wind Pressure Humidity
    00:00 +11°C° 0 mm 1 mps 739 mmHg 61%
    01:00 +11°C° 0 mm 1 mps 739 mmHg 62%
    02:00 +11°C° 0 mm 1 mps 738 mmHg 63%
    03:00 +10°C° 0 mm 1 mps 738 mmHg 64%
    04:00 +12°C° 0 mm 1 mps 738 mmHg 61%
    05:00 +13°C° 0 mm 1 mps 738 mmHg 58%
    06:00 +14°C° 0 mm 1 mps 738 mmHg 54%
    07:00 +16°C° 0.1 mm 2 mps 738 mmHg 51%
    08:00 +18°C° 0.1 mm 2 mps 738 mmHg 47%
    09:00 +20°C° 0.1 mm 2 mps 738 mmHg 43%
    10:00 +22°C° 0 mm 1 mps 737 mmHg 40%
    11:00 +23°C° 0 mm 1 mps 737 mmHg 37%
    12:00 +25°C° 0 mm 1 mps 737 mmHg 35%
    13:00 +25°C° 0 mm 1 mps 736 mmHg 34%
    14:00 +25°C° 0 mm 1 mps 736 mmHg 33%
    15:00 +25°C° 0 mm 1 mps 736 mmHg 33%
    16:00 +24°C° 0 mm 1 mps 736 mmHg 39%
    17:00 +22°C° 0 mm 1 mps 736 mmHg 46%
    18:00 +20°C° 0 mm 1 mps 736 mmHg 52%
    19:00 +19°C° 0 mm 1 mps 736 mmHg 54%
    20:00 +18°C° 0 mm 1 mps 736 mmHg 56%
    21:00 +16°C° 0 mm 1 mps 737 mmHg 58%
    22:00 +15°C° 0 mm 1 mps 736 mmHg 58%
    23:00 +14°C° 0 mm 1 mps 736 mmHg 58%

    30 April, Sunday

    Time Temperature Precipitation Wind Pressure Humidity
    00:00 +14°C° 0 mm 1 mps 736 mmHg 58%
    01:00 +13°C° 0 mm 1 mps 736 mmHg 59%
    02:00 +13°C° 0 mm 1 mps 735 mmHg 60%
    03:00 +13°C° 0 mm 1 mps 735 mmHg 61%
    04:00 +14°C° 0 mm 1 mps 735 mmHg 58%
    05:00 +15°C° 0 mm 1 mps 736 mmHg 55%
    06:00 +16°C° 0 mm 1 mps 736 mmHg 52%
    07:00 +18°C° 0 mm 2 mps 736 mmHg 45%
    08:00 +20°C° 0 mm 2 mps 736 mmHg 38%
    09:00 +24°C° 0 mm 2 mps 736 mmHg 31%
    10:00 +25°C° 0 mm 2 mps 736 mmHg 30%
    11:00 +26°C° 0 mm 2 mps 735 mmHg 29%
    12:00 +27°C° 0 mm 2 mps 735 mmHg 27%
    13:00 +27°C° 0.1 mm 2 mps 734 mmHg 27%
    14:00 +27°C° 0.1 mm 1 mps 734 mmHg 27%
    15:00 +28°C° 0.1 mm 1 mps 734 mmHg 27%
    16:00 +26°C° 0 mm 1 mps 734 mmHg 33%
    17:00 +24°C° 0 mm 1 mps 734 mmHg 38%
    18:00 +23°C° 0 mm 1 mps 734 mmHg 43%
    19:00 +21°C° 0 mm 1 mps 734 mmHg 43%
    20:00 +19°C° 0 mm 1 mps 735 mmHg 43%
    21:00 +16°C° 0 mm 1 mps 735 mmHg 44%
    22:00 +15°C° 0 mm 1 mps 735 mmHg 43%
    23:00 +15°C° 0 mm 1 mps 734 mmHg 42%
    Show more